Location: Newark
(52.3500°N, 175.9667°E)
Time: 03:33:29
(UTC+00:00)

S-56A Canister/Altair - Pass Details

Date: 26 April 2021
Orbit: 631 x 2501 km, 38.9° (Epoch: 18 May)

Event Time Altitude Azimuth Distance (km) Brightness Sun altitude
Rises 08:24:02 0° 209° (SSW) 5,604 11.9 -7.6°
Reaches altitude 10° 08:29:26 10° 194° (SSW) 4,263 11.1 -8.3°
Maximum altitude 08:36:12 19° 156° (SSE) 3,113 10.1 -9.1°
Enters shadow 08:41:14 11° 118° (ESE) 3,246 10.1 -9.7°
